Simultaneous Nadir Overpasses (SNOs) Predictions

Prediction of SNOs between METOP-A and TERRA Satellite Orbit:

Table of predicted SNOs for the next 14.0 days since TLE Epoch: 5/23/2015
Index Date (METOP-A) Time (METOP-A) Lat,Lon (METOP-A) SZA (METOP-A ) Date (TERRA) Time (TERRA) Lat,Lon (TERRA) SZA (TERRA ) Distance(km) Time Diff (sec)
1 05/25/2015 07:11:42 81.34, 119.97 63.51 05/25/2015 07:12:23 81.33, 119.81 63.50 2.87 41
2 05/25/2015 08:02:22 -81.34, -72.46 116.47 05/25/2015 08:01:49 -81.34, -72.30 116.47 2.80 33
3 05/28/2015 02:46:03 81.34,-173.78 63.00 05/28/2015 02:46:38 81.34,-173.63 63.03 2.62 35
4 05/28/2015 03:36:42 -81.35, -5.81 116.93 05/28/2015 03:36:04 -81.35, -5.71 116.94 1.79 38
5 05/30/2015 22:20:22 81.34,-107.20 62.58 05/30/2015 22:20:52 81.34,-107.22 62.58 0.69 30
6 05/30/2015 23:11:01 -81.35, 60.79 117.35 05/30/2015 23:10:18 -81.35, 60.72 117.38 1.18 43
7 06/02/2015 17:54:42 81.34, -40.67 62.19 06/02/2015 17:55:06 81.35, -40.59 62.22 1.47 24
8 06/02/2015 18:45:22 -81.34, 126.94 117.78 06/02/2015 18:44:33 -81.34, 127.00 117.80 1.03 49
9 06/05/2015 13:29:02 81.34, 25.80 61.86 06/05/2015 13:29:20 81.35, 25.90 61.88 1.65 18




NCC Satellite Simultaneous Nadir Overpasses (SNOs) Prediction Service
